Regional Weather Roundup
Issued by NWS

Home | Current Version | Previous Version | Text Only | Print | Product List | Glossary On
Versions: 1 2 3 4 5 6 7 8 9 10 11 12 13 14 15 16 17 18 19 20 21 22 23 24 25 26 27 28 29 30 31 32 33 34 35 36 37 38 39 40 41 42 43 44 45 46 47 48
000
ASUS42 KKEY 310510
RWRKEY

FLORIDA REGIONAL WEATHER ROUNDUP FOR THE FLORIDA KEYS
NATIONAL WEATHER SERVICE KEY WEST FLORIDA
100 AM EDT MON AUG 31 2015

...SOUTH FLORIDA AND THE KEYS...

CITY           SKY/WX    TMP DP  RH WIND       PRES   REMARKS
FORT MYERS     CLOUDY    76  75  97 E6        30.00F
SW REGIONAL AP CLOUDY    77  75  93 E6        30.01F
NAPLES         CLOUDY    78  76  93 E7        30.00F
MIAMI          MOCLDY    80  75  84 CALM      30.03F
WEST KENDALL   MOCLDY    79  75  87 S3          N/A
HOMESTEAD      MOCLDY    78  75  89 SE3       30.02F
MARATHON       CLOUDY    82  76  81 S7        30.01F
BOCA CHICA NAS CLOUDY    81  74  79 S13       29.99F
KEY WEST INTL  CLOUDY    82  75  79 S12       29.99F

...INTERNATIONAL WEATHER...

CITY           SKY/WX    TMP DP  RH WIND       PRES   REMARKS
NASSAU BAHAMAS MOCLDY    81  75  83 CALM      30.07F
CANCUN MEXICO  MOCLDY    82  81  94 E3        29.95S HX  95
COZUMEL MEXICO PTCLDY    73  73 100 CALM      29.96S

ADJACENT COASTAL WATERS...

STATION/POSITION TIME  SKY/WX   TEMP    WIND        PRES    WAVE
                                AIR SEA DIR/SP/G            HT/PER
                 (UTC)          (F)     (DEG/KT/KT) (MB)    (FT/S)
PULASKI SHOAL LI 0400                                 N/A
SAND KEY         0450            83     170/ 16     1015.7F
SOMBRERO KEY     NOT AVBL
LONG KEY         0500            84 85  180/ 11/ 14 1017.0F
MOLASSES REEF    0500            83 87  160/  7/ 10 1016.7F
FOWEY ROCKS      NOT AVBL

$$



USA.gov is the U.S. government's official web portal to all federal, state and local government web resources and services.